#timestamp,LO_Frequency,Hit 
1501430415.4,286046986.4,N
1501430435.2,286046985.4,N
1501430455.1,286046984.0,N
1501430456.0,286046984.0,N
1501430475.8,286046986.1,N
1501430495.6,286046984.4,N
1501430515.5,286046986.4,N
1501430535.3,286046984.4,N
1501430555.1,286046986.8,N
1501430575.9,286046984.4,N
1501430595.7,286046984.3,N
1501430615.5,286046983.8,N
1501430635.4,286046984.2,N
1501430655.2,286046984.8,N
1501430675.0,286046986.4,N
1501430675.9,286046986.4,N
1501430695.8,286046985.0,N
1501430715.6,286046982.1,N
1501430735.4,286046984.5,N
1501430755.2,286046985.1,N
1501430775.1,286046982.1,N
1501430776.0,286046982.1,N
1501430795.8,286046984.5,N
1501430815.6,286046984.2,N
1501430835.5,286046984.7,N
1501430855.3,286046984.6,N
1501430875.1,286046984.5,N
1501430895.9,286046984.5,N
1501430915.7,286046985.2,N
1501430935.5,286046983.9,N
1501430955.4,286046984.1,N
1501430975.2,286046984.3,N
1501430995.0,286046985.1,N
1501430995.9,286046985.1,N
1501431015.7,286046982.8,N
1501431035.6,286046984.2,N
1501431055.4,286046984.3,N
1501431075.2,286046982.4,N
1501431095.1,286046985.0,N
1501431096.0,286046985.0,N
1501431115.8,286046984.6,N
1501431135.6,286046986.8,N
1501431155.5,286046984.5,N
1501431175.3,286046986.5,N
1501431195.1,286046986.3,N
1501431215.9,286046983.8,N
1501431235.7,286046983.9,N
1501431255.5,286046984.0,N
1501431275.3,286046984.5,N
1501431295.2,286046983.8,N
1501431315.0,286046984.1,N
1501431315.9,286046984.1,N
1501431335.7,286046983.7,N
1501431355.6,286046984.4,N
1501431375.4,286046984.2,N
1501431395.2,286046984.5,N
1501431415.1,286046984.6,N
1501431416.0,286046984.6,N
1501431435.8,286046986.4,N
1501431455.6,286046985.8,N
1501431475.5,286046986.2,N
1501431495.3,286046986.3,N
1501431515.1,286046987.9,N
1501431535.9,286046987.6,N
1501431555.7,286046985.6,N
1501431575.5,286046985.9,N
1501431595.3,286046986.6,N
1501431615.2,286046988.0,N
1501431635.9,286046986.4,N
1501431655.7,286046987.7,N
1501431675.6,286046988.2,N
1501431695.4,286046986.1,N
1501431715.2,286046988.4,N
1501431735.1,286046988.1,N
1501431736.0,286046988.1,N
1501431755.8,286046987.1,N
1501431775.6,286046988.1,N
1501431795.4,286046988.2,N
1501431815.3,286046987.8,N
1501431835.1,286046988.3,N
1501431855.8,286046988.4,N
1501431875.7,286046988.2,N
1501431895.5,286046987.7,N
1501431915.3,286046989.9,N
1501431935.2,286046986.9,N
1501431955.9,286046989.8,N
1501431975.7,286046987.2,N
1501431995.6,286046987.8,N
1501432015.4,286046991.6,N
1501432035.2,286046989.0,N
1501432055.0,286046989.1,N
1501432055.9,286046989.1,N
1501432075.8,286046989.7,N
1501432095.6,286046987.0,N
1501432115.4,286046988.1,N
1501432135.3,286046987.1,N
1501432155.1,286046987.8,N
1501432175.8,286046986.2,N
1501432195.7,286046987.9,N
1501432215.5,286046987.6,N
1501432235.3,286046985.3,N
1501432255.2,286046988.0,N
1501432275.9,286046989.6,N
1501432295.7,286046987.3,N
1501432315.5,286046988.7,N
1501432335.4,286046991.1,N
1501432355.2,286046989.7,N
1501432375.0,286046987.3,N
1501432375.9,286046987.3,N
1501432395.8,286046987.4,N
1501432415.6,286046987.0,N
1501432435.4,286046987.0,N
1501432455.3,286046991.6,N
1501432475.1,286046989.7,N
1501432476.0,286046989.7,N
1501432495.8,286046989.8,N
1501432515.7,286046989.7,N
1501432535.5,286046991.2,N
1501432555.3,286046988.7,N
1501432575.2,286046990.2,N
1501432595.9,286046990.7,N
1501432615.7,286046991.3,N
1501432635.5,286046988.7,N
1501432655.4,286046989.3,N
1501432675.2,286046988.7,N
1501432695.0,286046989.8,N
1501432695.9,286046989.8,N
1501432715.8,286046987.3,N
1501432735.6,286046991.6,N
1501432755.4,286046988.5,N
1501432775.3,286046991.1,N
1501432795.1,286046991.2,N
1501432796.0,286046991.2,N
1501432815.8,286046991.6,N
1501432835.7,286046991.3,N
1501432855.5,286046989.1,N
1501432875.3,286046991.6,N
1501432895.1,286046991.3,N
1501432915.9,286046990.3,N
1501432935.7,286046988.5,N
1501432955.5,286046988.9,N
1501432975.4,286046988.6,N
1501432995.2,286046990.1,N
1501433015.0,286046992.7,N
1501433015.9,286046992.7,N
1501433035.8,286046991.5,N
1501433055.6,286046988.9,N
1501433075.4,286046991.2,N
1501433095.3,286046991.2,N
1501433115.1,286046991.3,N
1501433116.0,286046991.3,N
1501433135.8,286046992.8,N
1501433155.7,286046992.6,N
1501433175.5,286046992.1,N
1501433195.3,286046994.4,N
1501433215.1,286046993.0,N
1501433235.9,286046994.4,N
1501433255.7,286046992.2,N
1501433275.5,286046990.2,N
1501433295.4,286046991.3,N
1501433315.2,286046992.7,N
1501433335.0,286046990.2,N
1501433335.9,286046990.2,N
1501433355.8,286046990.6,N
1501433375.6,286046990.2,N
1501433395.4,286046991.2,N
1501433415.3,286046991.5,N
1501433435.1,286046990.2,N
1501433436.0,286046990.2,N
1501433455.8,286046993.1,N
1501433475.7,286046991.8,N
1501433495.5,286046992.4,N
1501433515.3,286046990.6,N
1501433535.1,286046993.1,N
1501433555.9,286046990.3,N
1501433575.7,286046990.3,N
1501433595.5,286046990.7,N
1501433615.4,286046990.1,N
1501433635.2,286046990.3,N
1501433655.0,286046990.2,N
1501433655.9,286046990.2,N
1501433675.8,286046992.3,N
1501433695.6,286046993.1,N
1501433715.4,286046990.2,N
1501433735.3,286046990.5,N
1501433755.1,286046988.5,N
1501433756.0,286046988.5,N
1501433775.8,286046991.3,N
1501433795.7,286046990.5,N
1501433815.5,286046990.7,N
1501433835.3,286046992.0,N
1501433855.1,286046993.0,N
1501433875.9,286046994.6,N
1501433895.7,286046991.9,N
1501433915.5,286046991.8,N
1501433935.4,286046992.3,N
1501433955.2,286046992.8,N
1501433975.0,286046992.6,N
1501433975.9,286046992.6,N
1501433995.8,286046993.1,N
